RAA44 ILLI-UMMS

Flight info

Callsign RAA44
Flight time N/A
Altitude 34000
Route RUMOL1B RUMOL N171 LUMIT M984 LEGSI N743 DAHRU T398 PENAL PENAL2H
Aircraft B738/M-SDE2E3FGHIRWXY/A

Departure

Time N/A
Airport ILLI

Arrival

Time 2026-05-04 22:21
Airport Minsk National Airport (UMMS)
Time Latitude Longitude Altitude Speed Heading
2026-05-04 20:34 59.79920 30.29461 87 ft 0 kts 196°
2026-05-04 20:52 59.79921 30.29461 87 ft 1 kts 196°
2026-05-04 20:52 59.79935 30.29469 87 ft 2 kts 195°
2026-05-04 20:53 59.79950 30.29477 87 ft 2 kts 192°
2026-05-04 20:53 59.79966 30.29483 87 ft 2 kts 187°
2026-05-04 20:53 59.79982 30.29485 87 ft 2 kts 177°
2026-05-04 20:53 59.79997 30.29481 87 ft 2 kts 157°
2026-05-04 20:54 59.80008 30.29468 87 ft 2 kts 118°
2026-05-04 20:54 59.80013 30.29441 87 ft 2 kts 106°
2026-05-04 20:54 59.80017 30.29413 87 ft 2 kts 106°
2026-05-04 20:54 59.80018 30.29407 87 ft 0 kts 106°
2026-05-04 20:58 59.80015 30.29427 87 ft 5 kts 106°
2026-05-04 20:58 59.80007 30.29482 87 ft 2 kts 106°
2026-05-04 20:58 59.80007 30.29485 87 ft 0 kts 106°
2026-05-04 20:59 59.79993 30.29582 87 ft 10 kts 106°
2026-05-04 20:59 59.79984 30.29651 87 ft 14 kts 106°
2026-05-04 20:59 59.79950 30.29880 87 ft 15 kts 107°
2026-05-04 20:59 59.79950 30.30038 87 ft 10 kts 57°
2026-05-04 21:00 59.79986 30.30117 87 ft 0 kts 46°
2026-05-04 21:00 59.79986 30.30118 87 ft 0 kts 46°
2026-05-04 21:00 59.80000 30.30147 87 ft 9 kts 46°
2026-05-04 21:01 59.80045 30.30241 87 ft 11 kts 46°
2026-05-04 21:01 59.80115 30.30280 87 ft 6 kts 319°
2026-05-04 21:01 59.80130 30.30215 87 ft 5 kts 285°
2026-05-04 21:01 59.80131 30.30202 87 ft 0 kts 286°
2026-05-04 21:02 59.80145 30.30112 87 ft 24 kts 286°
2026-05-04 21:02 59.80256 30.29360 87 ft 88 kts 287°
2026-05-04 21:02 59.80480 30.27850 109 ft 139 kts 286°
2026-05-04 21:02 59.80741 30.26043 785 ft 134 kts 286°
2026-05-04 21:03 59.80994 30.24217 1241 ft 139 kts 286°
2026-05-04 21:03 59.81265 30.22325 1466 ft 146 kts 286°
2026-05-04 21:03 59.81554 30.20383 1794 ft 145 kts 285°
2026-05-04 21:03 59.81830 30.18570 2344 ft 132 kts 284°
2026-05-04 21:04 59.82097 30.16818 2701 ft 132 kts 284°
2026-05-04 21:04 59.82364 30.15080 3056 ft 132 kts 283°
2026-05-04 21:04 59.82639 30.13245 3391 ft 152 kts 283°
2026-05-04 21:04 59.82967 30.11042 3609 ft 182 kts 283°
2026-05-04 21:05 59.83350 30.08446 3669 ft 206 kts 283°
2026-05-04 21:05 59.83760 30.05654 3630 ft 213 kts 283°
2026-05-04 21:05 59.84130 30.02791 3556 ft 213 kts 275°
2026-05-04 21:05 59.83846 29.99994 3910 ft 215 kts 244°
2026-05-04 21:06 59.82797 29.97923 5074 ft 207 kts 218°
2026-05-04 21:06 59.81488 29.96722 6034 ft 210 kts 212°
2026-05-04 21:06 59.80170 29.95370 6708 ft 217 kts 212°
2026-05-04 21:06 59.78758 29.94262 7477 ft 225 kts 206°
2026-05-04 21:07 59.77253 29.93354 8291 ft 228 kts 204°
2026-05-04 21:07 59.75673 29.92730 9050 ft 241 kts 189°
2026-05-04 21:07 59.73989 29.93509 9808 ft 262 kts 164°
2026-05-04 21:07 59.72493 29.95809 10517 ft 286 kts 140°
2026-05-04 21:08 59.71468 29.99356 11082 ft 312 kts 116°
2026-05-04 21:08 59.71076 30.03746 11489 ft 337 kts 97°
2026-05-04 21:08 59.70850 30.08485 11843 ft 354 kts 104°
2026-05-04 21:08 59.70271 30.13272 12138 ft 371 kts 110°
2026-05-04 21:09 59.69711 30.18425 12420 ft 394 kts 103°
2026-05-04 21:09 59.69437 30.23953 12796 ft 413 kts 96°
2026-05-04 21:09 59.69362 30.29685 13444 ft 419 kts 94°
2026-05-04 21:09 59.69163 30.35446 14196 ft 420 kts 101°
2026-05-04 21:10 59.68657 30.41143 14972 ft 420 kts 106°
2026-05-04 21:10 59.68033 30.46826 15716 ft 424 kts 107°
2026-05-04 21:10 59.67399 30.52555 16423 ft 428 kts 107°
2026-05-04 21:10 59.66747 30.58228 17108 ft 429 kts 111°
2026-05-04 21:11 59.65548 30.63538 17782 ft 420 kts 128°
2026-05-04 21:11 59.63692 30.67872 18442 ft 408 kts 146°
2026-05-04 21:11 59.61356 30.70891 19070 ft 397 kts 162°
2026-05-04 21:11 59.58757 30.72391 19699 ft 386 kts 178°
2026-05-04 21:12 59.56083 30.72986 20292 ft 388 kts 181°
2026-05-04 21:12 59.53389 30.73387 20863 ft 389 kts 184°
2026-05-04 21:12 59.50677 30.73714 21443 ft 393 kts 181°
2026-05-04 21:12 59.47934 30.74265 21981 ft 398 kts 180°
2026-05-04 21:13 59.45206 30.74925 22493 ft 402 kts 179°
2026-05-04 21:13 59.42417 30.75643 23003 ft 406 kts 179°
2026-05-04 21:13 59.39614 30.76384 23536 ft 408 kts 179°
2026-05-04 21:13 59.36791 30.77137 24020 ft 411 kts 178°
2026-05-04 21:14 59.33951 30.77898 24483 ft 414 kts 178°
2026-05-04 21:14 59.31086 30.78668 24935 ft 417 kts 178°
2026-05-04 21:14 59.28211 30.79441 25407 ft 418 kts 178°
2026-05-04 21:14 59.25320 30.80219 25859 ft 421 kts 178°
2026-05-04 21:15 59.22451 30.80991 26275 ft 423 kts 178°
2026-05-04 21:15 59.19530 30.81777 26714 ft 424 kts 178°
2026-05-04 21:15 59.16599 30.82563 27096 ft 427 kts 178°
2026-05-04 21:15 59.13655 30.83366 27496 ft 429 kts 178°
2026-05-04 21:16 59.10707 30.84540 27866 ft 436 kts 173°
2026-05-04 21:16 59.07769 30.86102 28207 ft 440 kts 171°
2026-05-04 21:16 59.04826 30.87805 28566 ft 442 kts 170°
2026-05-04 21:16 59.01885 30.89494 29080 ft 439 kts 170°
2026-05-04 21:17 58.98962 30.91155 29574 ft 437 kts 171°
2026-05-04 21:17 58.96091 30.92775 30072 ft 434 kts 171°
2026-05-04 21:17 58.93195 30.94399 30507 ft 433 kts 171°
2026-05-04 21:17 58.90300 30.96017 30862 ft 434 kts 171°
2026-05-04 21:18 58.87397 30.97635 31237 ft 434 kts 171°
2026-05-04 21:18 58.84503 30.99244 31653 ft 433 kts 171°
2026-05-04 21:18 58.81605 31.00834 31992 ft 432 kts 172°
2026-05-04 21:18 58.78686 31.02037 32362 ft 427 kts 177°
2026-05-04 21:19 58.75747 31.02695 32673 ft 424 kts 182°
2026-05-04 21:19 58.72814 31.02992 33049 ft 421 kts 184°
2026-05-04 21:19 58.69893 31.03148 33451 ft 419 kts 185°
2026-05-04 21:19 58.67017 31.03284 33679 ft 422 kts 184°
2026-05-04 21:20 58.61124 31.03554 33692 ft 423 kts 185°
2026-05-04 21:20 58.55261 31.03816 33698 ft 420 kts 184°
2026-05-04 21:21 58.49421 31.04074 33702 ft 420 kts 184°
2026-05-04 21:21 58.43606 31.04329 33704 ft 421 kts 184°
2026-05-04 21:22 58.37742 31.04576 33707 ft 422 kts 184°
2026-05-04 21:22 58.31872 31.04821 33709 ft 422 kts 185°
2026-05-04 21:23 58.26007 31.05064 33711 ft 422 kts 184°
2026-05-04 21:23 58.20126 31.05307 33713 ft 422 kts 184°
2026-05-04 21:24 58.14294 31.05547 33715 ft 422 kts 184°
2026-05-04 21:24 58.08419 31.05789 33717 ft 423 kts 184°
2026-05-04 21:25 58.02536 31.06034 33719 ft 423 kts 184°
2026-05-04 21:25 57.96685 31.06274 33721 ft 426 kts 184°
2026-05-04 21:26 57.90723 31.06517 33722 ft 430 kts 184°
2026-05-04 21:26 57.84758 31.06758 33724 ft 428 kts 184°
2026-05-04 21:27 57.78796 31.06924 33721 ft 427 kts 187°
2026-05-04 21:27 57.72961 31.05583 33720 ft 421 kts 196°
2026-05-04 21:28 57.67299 31.03200 33723 ft 420 kts 197°
2026-05-04 21:28 57.61606 31.00740 33727 ft 420 kts 197°
2026-05-04 21:29 57.55921 30.98301 33731 ft 419 kts 197°
2026-05-04 21:29 57.50246 30.95881 33735 ft 418 kts 197°
2026-05-04 21:30 57.44604 30.93481 33748 ft 419 kts 197°
2026-05-04 21:30 57.38920 30.91070 33762 ft 419 kts 197°
2026-05-04 21:31 57.30305 30.88001 33768 ft 421 kts 195°
2026-05-04 21:32 57.24544 30.86017 33769 ft 421 kts 195°
2026-05-04 21:32 57.18826 30.84040 33771 ft 421 kts 195°
2026-05-04 21:33 57.13070 30.82049 33772 ft 421 kts 195°
2026-05-04 21:33 57.07310 30.80031 33774 ft 422 kts 195°
2026-05-04 21:34 57.01537 30.78021 33776 ft 422 kts 195°
2026-05-04 21:34 56.95803 30.76044 33778 ft 422 kts 195°
2026-05-04 21:35 56.90024 30.74063 33779 ft 423 kts 195°
2026-05-04 21:35 56.84231 30.72084 33781 ft 423 kts 195°
2026-05-04 21:36 56.78440 30.70131 33783 ft 424 kts 194°
2026-05-04 21:36 56.72616 30.68705 33785 ft 426 kts 191°
2026-05-04 21:37 56.66722 30.67380 33787 ft 427 kts 192°
2026-05-04 21:37 56.60834 30.66021 33789 ft 426 kts 192°
2026-05-04 21:38 56.54943 30.64655 33791 ft 427 kts 192°
2026-05-04 21:38 56.49051 30.63287 33793 ft 427 kts 192°
2026-05-04 21:39 56.43192 30.61927 33796 ft 428 kts 192°
2026-05-04 21:39 56.37288 30.60565 33798 ft 428 kts 191°
2026-05-04 21:40 56.31366 30.59345 33800 ft 429 kts 191°
2026-05-04 21:40 56.25439 30.58135 33802 ft 428 kts 191°
2026-05-04 21:41 56.19557 30.56935 33804 ft 428 kts 191°
2026-05-04 21:41 56.13632 30.55729 33805 ft 428 kts 191°
2026-05-04 21:42 56.07709 30.54528 33807 ft 428 kts 191°
2026-05-04 21:42 56.01781 30.53334 33809 ft 428 kts 191°
2026-05-04 21:43 55.95887 30.52157 33810 ft 431 kts 191°
2026-05-04 21:43 55.89919 30.50969 33813 ft 432 kts 191°
2026-05-04 21:44 55.83944 30.49783 33816 ft 432 kts 191°
2026-05-04 21:44 55.77974 30.48577 33817 ft 432 kts 191°
2026-05-04 21:45 55.72052 30.47332 33818 ft 432 kts 191°
2026-05-04 21:45 55.66083 30.46088 33817 ft 432 kts 191°
2026-05-04 21:46 55.60110 30.44849 33818 ft 432 kts 191°
2026-05-04 21:46 55.54141 30.43574 33816 ft 431 kts 193°
2026-05-04 21:47 55.48429 30.40652 33818 ft 426 kts 206°
2026-05-04 21:47 55.43150 30.36150 33817 ft 424 kts 210°
2026-05-04 21:48 55.37923 30.31335 33820 ft 425 kts 211°
2026-05-04 21:48 55.32695 30.26517 33819 ft 425 kts 210°
2026-05-04 21:49 55.27454 30.21691 33818 ft 425 kts 210°
2026-05-04 21:49 55.22208 30.16869 33818 ft 426 kts 210°
2026-05-04 21:50 55.17382 30.12411 33818 ft 427 kts 211°
2026-05-04 21:50 55.12126 30.07553 33818 ft 428 kts 210°
2026-05-04 21:51 55.06853 30.02710 33821 ft 429 kts 210°
2026-05-04 21:51 55.01566 29.97877 33494 ft 427 kts 210°
2026-05-04 21:51 54.98983 29.95498 32805 ft 425 kts 210°
2026-05-04 21:52 54.96366 29.93100 32040 ft 426 kts 210°
2026-05-04 21:52 54.93732 29.90700 31258 ft 427 kts 210°
2026-05-04 21:52 54.91095 29.88309 30462 ft 428 kts 210°
2026-05-04 21:52 54.88447 29.85914 29647 ft 430 kts 210°
2026-05-04 21:53 54.85792 29.83519 28980 ft 428 kts 210°
2026-05-04 21:53 54.83163 29.81152 28389 ft 424 kts 210°
2026-05-04 21:53 54.80556 29.78809 27803 ft 420 kts 210°
2026-05-04 21:53 54.77971 29.76487 27222 ft 417 kts 210°
2026-05-04 21:54 54.75439 29.74216 26650 ft 414 kts 210°
2026-05-04 21:54 54.72896 29.71937 26074 ft 410 kts 210°
2026-05-04 21:54 54.70371 29.69683 25502 ft 407 kts 210°
2026-05-04 21:54 54.67861 29.67450 24932 ft 404 kts 210°
2026-05-04 21:55 54.65371 29.65238 24366 ft 401 kts 210°
2026-05-04 21:55 54.62897 29.63043 23801 ft 398 kts 210°
2026-05-04 21:55 54.60452 29.60850 23243 ft 395 kts 210°
2026-05-04 21:55 54.58022 29.58676 22685 ft 392 kts 210°
2026-05-04 21:56 54.55608 29.56527 22130 ft 389 kts 210°
2026-05-04 21:56 54.53214 29.54401 21580 ft 386 kts 210°
2026-05-04 21:56 54.50858 29.52323 21037 ft 384 kts 210°
2026-05-04 21:56 54.48491 29.50239 20491 ft 381 kts 210°
2026-05-04 21:57 54.46142 29.48175 19948 ft 378 kts 210°
2026-05-04 21:57 54.43807 29.46124 19408 ft 375 kts 210°
2026-05-04 21:57 54.41491 29.44091 18871 ft 373 kts 210°
2026-05-04 21:57 54.39187 29.42075 18336 ft 370 kts 210°
2026-05-04 21:58 54.36903 29.40078 17806 ft 368 kts 210°
2026-05-04 21:58 54.34630 29.38090 17279 ft 365 kts 210°
2026-05-04 21:58 54.32381 29.36110 16760 ft 363 kts 210°
2026-05-04 21:58 54.30171 29.34170 16248 ft 360 kts 210°
2026-05-04 21:59 54.27950 29.32228 15735 ft 358 kts 210°
2026-05-04 21:59 54.25741 29.30301 15227 ft 355 kts 210°
2026-05-04 21:59 54.23543 29.28386 14720 ft 353 kts 210°
2026-05-04 21:59 54.21371 29.26477 14221 ft 351 kts 210°
2026-05-04 22:00 54.19198 29.24602 13724 ft 348 kts 210°
2026-05-04 22:00 54.17040 29.22736 13233 ft 346 kts 210°
2026-05-04 22:00 54.14991 29.20659 12741 ft 340 kts 221°
2026-05-04 22:00 54.13428 29.17703 12232 ft 335 kts 238°
2026-05-04 22:01 54.12351 29.14269 11728 ft 332 kts 246°
2026-05-04 22:01 54.11465 29.10670 11444 ft 324 kts 249°
2026-05-04 22:01 54.10716 29.07114 11276 ft 314 kts 251°
2026-05-04 22:01 54.10013 29.03722 11116 ft 304 kts 251°
2026-05-04 22:02 54.09313 29.00381 10956 ft 295 kts 251°
2026-05-04 22:02 54.08633 28.97142 10801 ft 286 kts 251°
2026-05-04 22:02 54.07974 28.93995 10652 ft 279 kts 251°
2026-05-04 22:02 54.07293 28.90952 10501 ft 272 kts 247°
2026-05-04 22:03 54.06456 28.88150 10360 ft 266 kts 242°
2026-05-04 22:03 54.05533 28.85475 10221 ft 259 kts 240°
2026-05-04 22:03 54.04609 28.82904 10083 ft 251 kts 240°
2026-05-04 22:03 54.03720 28.80391 9950 ft 244 kts 241°
2026-05-04 22:04 54.02846 28.77905 9727 ft 248 kts 240°
2026-05-04 22:04 54.01955 28.75370 9464 ft 252 kts 240°
2026-05-04 22:04 54.01044 28.72778 9196 ft 258 kts 240°
2026-05-04 22:04 54.00119 28.70159 8913 ft 258 kts 240°
2026-05-04 22:05 53.99195 28.67549 8626 ft 257 kts 240°
2026-05-04 22:05 53.98288 28.64987 8345 ft 256 kts 240°
2026-05-04 22:05 53.97373 28.62408 8062 ft 254 kts 240°
2026-05-04 22:05 53.96463 28.59849 7780 ft 253 kts 240°
2026-05-04 22:06 53.95556 28.57303 7496 ft 251 kts 240°
2026-05-04 22:06 53.94659 28.54778 7213 ft 249 kts 240°
2026-05-04 22:06 53.93761 28.52261 6914 ft 248 kts 240°
2026-05-04 22:06 53.92866 28.49767 6616 ft 247 kts 240°
2026-05-04 22:07 53.91976 28.47275 6312 ft 246 kts 240°
2026-05-04 22:07 53.91090 28.44792 6000 ft 246 kts 240°
2026-05-04 22:07 53.90225 28.42374 5819 ft 240 kts 240°
2026-05-04 22:07 53.89376 28.39994 5677 ft 233 kts 240°
2026-05-04 22:08 53.88433 28.37849 5600 ft 224 kts 224°
2026-05-04 22:08 53.87051 28.36729 5504 ft 223 kts 196°
2026-05-04 22:08 53.85496 28.36902 5238 ft 233 kts 170°
2026-05-04 22:08 53.84042 28.38286 4837 ft 247 kts 146°
2026-05-04 22:09 53.82795 28.40303 4564 ft 248 kts 141°
2026-05-04 22:09 53.81574 28.42371 4280 ft 248 kts 140°
2026-05-04 22:09 53.80371 28.44398 4020 ft 246 kts 141°
2026-05-04 22:09 53.79113 28.46328 3953 ft 244 kts 144°
2026-05-04 22:10 53.77823 28.48205 3922 ft 246 kts 144°
2026-05-04 22:10 53.76520 28.50096 3875 ft 247 kts 144°
2026-05-04 22:10 53.75223 28.51987 3830 ft 246 kts 144°
2026-05-04 22:10 53.73933 28.53878 3791 ft 246 kts 144°
2026-05-04 22:11 53.72629 28.55740 3737 ft 244 kts 149°
2026-05-04 22:11 53.71106 28.56742 3689 ft 230 kts 178°
2026-05-04 22:11 53.69574 28.56392 3654 ft 221 kts 206°
2026-05-04 22:11 53.68305 28.55046 3620 ft 218 kts 222°
2026-05-04 22:12 53.67222 28.53284 3571 ft 216 kts 230°
2026-05-04 22:12 53.66257 28.51353 3533 ft 215 kts 233°
2026-05-04 22:12 53.65335 28.49455 3503 ft 203 kts 233°
2026-05-04 22:12 53.64745 28.48271 3460 ft 196 kts 232°
2026-05-04 22:13 53.63613 28.46011 3392 ft 182 kts 236°
2026-05-04 22:13 53.63357 28.44051 3307 ft 177 kts 277°
2026-05-04 22:13 53.63973 28.42322 3352 ft 171 kts 306°
2026-05-04 22:13 53.64855 28.40970 3320 ft 171 kts 313°
2026-05-04 22:14 53.65761 28.39720 3267 ft 167 kts 314°
2026-05-04 22:14 53.66653 28.38474 3231 ft 166 kts 313°
2026-05-04 22:14 53.67534 28.37222 3200 ft 165 kts 313°
2026-05-04 22:14 53.68403 28.35968 3169 ft 164 kts 312°
2026-05-04 22:15 53.69277 28.34699 3141 ft 166 kts 312°
2026-05-04 22:15 53.70157 28.33417 3113 ft 168 kts 312°
2026-05-04 22:15 53.71026 28.32146 3079 ft 167 kts 312°
2026-05-04 22:15 53.71899 28.30863 3037 ft 166 kts 312°
2026-05-04 22:16 53.72768 28.29587 3011 ft 165 kts 312°
2026-05-04 22:16 53.73630 28.28317 3011 ft 166 kts 312°
2026-05-04 22:16 53.74500 28.27038 3017 ft 166 kts 312°
2026-05-04 22:16 53.75368 28.25758 3006 ft 165 kts 312°
2026-05-04 22:17 53.75935 28.24923 3006 ft 163 kts 312°
2026-05-04 22:17 53.76774 28.23688 3030 ft 158 kts 311°
2026-05-04 22:17 53.77856 28.22087 3013 ft 155 kts 311°
2026-05-04 22:17 53.78661 28.20898 2996 ft 155 kts 311°
2026-05-04 22:18 53.79490 28.19674 2873 ft 160 kts 312°
2026-05-04 22:18 53.80324 28.18442 2666 ft 157 kts 312°
2026-05-04 22:18 53.81133 28.17246 2461 ft 151 kts 312°
2026-05-04 22:18 53.81649 28.16483 2312 ft 146 kts 312°
2026-05-04 22:19 53.82396 28.15376 2105 ft 141 kts 312°
2026-05-04 22:19 53.83130 28.14291 1924 ft 141 kts 316°
2026-05-04 22:19 53.84113 28.12836 1698 ft 143 kts 316°
2026-05-04 22:19 53.84865 28.11721 1507 ft 144 kts 316°
2026-05-04 22:20 53.85621 28.10601 1312 ft 144 kts 316°
2026-05-04 22:20 53.86371 28.09489 1119 ft 143 kts 316°
2026-05-04 22:20 53.86864 28.08759 996 ft 142 kts 316°
2026-05-04 22:20 53.87602 28.07664 808 ft 141 kts 317°
2026-05-04 22:21 53.88332 28.06580 678 ft 137 kts 317°
2026-05-04 22:21 53.88942 28.05673 677 ft 80 kts 318°
2026-05-04 22:21 53.89218 28.05261 677 ft 42 kts 321°
2026-05-04 22:21 53.89461 28.04904 677 ft 27 kts 319°
2026-05-04 22:22 53.89609 28.04686 677 ft 29 kts 319°
2026-05-04 22:22 53.89705 28.04542 677 ft 24 kts 318°
2026-05-04 22:22 53.89762 28.04401 677 ft 11 kts 285°
2026-05-04 22:22 53.89779 28.04300 677 ft 0 kts 285°